Погода в Калафосе

Греция     36°07′23″N   28°03′33″E
темп.,
°C
ветер,
м/с
пор.,
м/с
влажн.,
%
обл.,
%
осадки,
мм/ч
давл.,
гПа
погр.,
м
21 января, чт
чт2123:00+11сз68610 0.0 1028681
02:00+11сз56620 0.0 1028716
05:00+11ссз465848 0.0 1028785
08:00+11ссв226474 0.0 1028214
11:00+13в2262100 0.0 1030618
14:00+13ю3470100 0.1 1028765
17:00+13вюв127391 0.5 1029478
20:00+14зсз346966 1.0 1029641
22 января, пт
пт2223:00+14з457241 0.8 1030620
02:00+14сз336557 1.3 1028536
05:00+13зсз236910 0.2 1028394
08:00+14з236347 0.4 1028628
11:00+15ююз3357100 0.1 10281162
14:00+14ююз4462100 0.3 10261030
17:00+14ююз4465100 0.2 1026964
20:00+14ююз4468100 0.4 1025872
23 января, сб
сб2323:00+14ююз4467100 0.4 1025858
02:00+14ю446363 0.5 10241003
05:00+14ююз446418 0.0 1023987
08:00+14ю456311 0.0 10231020
11:00+14ю666574 0.1 10231151
14:00+14ю666587 0.3 10211155
17:00+14ююв676518 0.2 10201183
20:00+14ююв786651 0.3 10201149
24 января, вс
вс2423:00+15ююв8969100 0.3 10201180
02:00+15ююз6870100 0.9 10201150
05:00+15ююз896869 0.3 10181132
08:00+15ююз897054 0.6 10191209
11:00+15ю996827 0.2 10191296
14:00+16ю9106938 0.3 10181355
17:00+16ю896846 0.1 10181244
20:00+16ю9107237 0.1 10181235
25 января, пн
пн2523:00+16ю10117386 0.1 10181270
02:00+16ю10127384 0.2 10171292
05:00+16ю11137373 0.1 10161312
08:00+16ю12156884 0.1 10161653
11:00+17ююз11136533 0.1 10171667
14:00+17ююз9106867 0.2 10161298
17:00+17ююз81071100 0.1 10161129
20:00+17ююз8973100 0.3 10161087